Flag for Germany Weather past 2 weeks in Bitburg, Rhineland-Palatinate, Germany

Now
43 °F

Drizzle. Fog.


Feels Like: 34 °F
Forecast: 41 / 47 °F
Wind: 18 mph from Southwest

Location: Spangdahlem

Current Time: Dec 22, 2014 at 7:15:54 PM

Latest Report: Dec 22, 2014 at 3:58 PM


Visibility: 5 mi

Pressure: 30.21 "Hg

Humidity: 97%

Dew point: 42 °F

Location of BitburgLocation

Historic Weather in Bitburg — Graph

°F

Bitburg temperature yesterday

Maximum temperature yesterday: 41 °F (at 4:58 PM)
Minimum temperature yesterday: 37 °F (at 8:58 AM)
Average temperature yesterday: 40 °F

Past Weeks' High & Low Weather Summary

 TemperatureHumidityPressure
High52 °F (Dec 18, 5:58 PM)100% (Dec 7, 3:58 PM)30.47 "Hg (Dec 7, 3:58 PM)
Low30 °F (Dec 15, 7:58 AM)81% (Dec 14, 1:58 PM)29.54 "Hg (Dec 12, 5:58 PM)
Average39 °F94%30.04 "Hg
* Reported Dec 7 3:58 PM — Dec 22 3:58 PM, Bitburg, Weather by CustomWeather, © 2014

Note: Actual official high and low records may vary slightly from our data, if they occured in-between our weather recording intervals... More about our weather records

Advertising

Bitburg weather history for previous 24 hours

 ConditionsComfort  
Time TempWeatherWind HumidityBarometerVisibility
3:58 PM
Dec 22
43 °FDrizzle. Fog.18 mph97%30.21 "Hg5 mi
2:58 PM42 °FLight rain. Fog.16 mph97%30.21 "Hg2 mi
1:58 PM42 °FLight rain. Fog.20 mph96%30.23 "Hg2 mi
12:58 PM42 °FLight rain. Fog.18 mph94%30.25 "Hg2 mi
12:53 PM41 °FDrizzle. Low clouds.16 mph100%30.25 "HgN/A
11:58 AM41 °FLow clouds.22 mph93%30.27 "HgN/A
11:03 AM41 °FLow clouds.21 mph93%30.28 "HgN/A
10:58 AM41 °FDrizzle. Low clouds.20 mph94%30.28 "HgN/A
9:58 AM41 °FLow clouds.21 mph94%30.27 "HgN/A
8:58 AM41 °FLow clouds.17 mph94%30.27 "HgN/A
7:58 AM41 °FLow clouds.21 mph95%30.26 "HgN/A
7:02 AM41 °FLow clouds.16 mph93%30.26 "HgN/A
6:58 AM41 °FLow clouds.18 mph95%30.27 "HgN/A
6:04 AM41 °FLow clouds.16 mph93%30.25 "HgN/A
5:58 AM41 °FDrizzle. Low clouds.20 mph93%30.26 "HgN/A
4:58 AM41 °FDrizzle. Low clouds.16 mph96%30.28 "HgN/A
3:58 AM41 °FLow clouds.17 mph91%30.29 "HgN/A
2:58 AM41 °FOvercast.18 mph89%30.30 "HgN/A
1:58 AM41 °FLow clouds.17 mph93%30.31 "HgN/A
12:58 AM41 °FLow clouds.21 mph93%30.32 "HgN/A
11:58 PM
Dec 21
41 °FLow clouds.17 mph91%30.34 "HgN/A
10:58 PM41 °FOvercast.16 mph90%30.34 "HgN/A
9:58 PM41 °FOvercast.20 mph90%30.34 "HgN/A
8:58 PM41 °FLow clouds.20 mph92%30.36 "HgN/A
7:58 PM41 °FLow clouds.15 mph92%30.37 "HgN/A
Weather by CustomWeather, © 2014

See weather overviewHow to use our weather pages